Crane Lake, MN

9:54 AM CST on February 11, 2016 (GMT -0600)
Crane Lake

Weather History for KCDD - October, 2013

Change the Weather History Date:

Tuesday, October 8, 2013

  Actual Average Record
Temperature  
Mean Temperature 52 °F -  
Max Temperature 75 °F 54 °F 77 °F (2003)
Min Temperature 28 °F 36 °F 26 °F (2000)
Degree Days  
Heating Degree Days 14    
Growing Degree Days 2 (Base 50)    
Moisture  
Dew Point 39 °F    
Average Humidity 64    
Maximum Humidity 100    
Minimum Humidity 29    
Precipitation  
Precipitation 0.00 in - - ()
Sea Level Pressure  
Sea Level Pressure 29.79 in    
Wind  
Wind Speed 4 mph (SSE)    
Max Wind Speed 15 mph    
Max Gust Speed 25 mph    
Visibility 10 miles    
Events      
Averages and records for this station are not official NWS values.
T = Trace of Precipitation, MM = Missing Value Source: NWS Daily Summary

Daily Weather History Graph

Daily Weather History Graph

Search for Another Location

Airport or City:

Trip Planner

Search our weather history database for the weather conditions in past years. The results will help you decide how hot, cold, wet, or windy it might be!

Date:

Astronomy

Oct. 08, 2013 Rise Set
Actual Time 7:19 AM CDT 6:34 PM CDT
Civil Twilight 6:48 AM CDT 7:05 PM CDT
Nautical Twilight 6:12 AM CDT 7:41 PM CDT
Astronomical Twilight 5:35 AM CDT 8:17 PM CDT
Moon 11:32 AM CDT (10/8) 8:53 PM CDT (10/8)
Length of Visible Light 12h 16m
Length of Day
11h 14m
Waxing Crescent, 16% of the Moon is Illuminated
Oct 8
Waxing Crescent
Oct 11
First Quarter
Oct 18
Full
Oct 26
Last Quarter
Nov 3
New

Hourly Weather History & Observations

Time (CDT) Temp. Windchill Dew Point Humidity Pressure Visibility Wind Dir Wind Speed Gust Speed Precip Events Conditions
12:13 AM 28.4 °F - 26.6 °F 93% 29.94 in 10.0 mi Calm Calm - N/A   Clear
12:33 AM 28.4 °F - 26.6 °F 93% 29.94 in 10.0 mi Calm Calm - N/A   Clear
12:53 AM 28.4 °F - 26.6 °F 93% 29.93 in 10.0 mi Calm Calm - N/A   Clear
1:13 AM 28.4 °F - 26.6 °F 93% 29.93 in 10.0 mi Calm Calm - N/A   Clear
1:33 AM 28.4 °F - 26.6 °F 93% 29.93 in 10.0 mi Calm Calm - N/A   Clear
1:53 AM 28.4 °F - 26.6 °F 93% 29.93 in 10.0 mi Calm Calm - N/A   Clear
2:13 AM 28.4 °F - 26.6 °F 93% 29.92 in 10.0 mi Calm Calm - N/A   Clear
2:33 AM 28.4 °F - 26.6 °F 93% 29.92 in 10.0 mi Calm Calm - N/A   Clear
2:53 AM 28.4 °F - 26.6 °F 93% 29.91 in 10.0 mi Calm Calm - N/A   Clear
3:13 AM 28.4 °F - 26.6 °F 93% 29.91 in 10.0 mi Calm Calm - N/A   Clear
3:33 AM 28.4 °F - 26.6 °F 93% 29.91 in 10.0 mi Calm Calm - N/A   Clear
3:53 AM 28.4 °F - 26.6 °F 93% 29.90 in 10.0 mi Calm Calm - N/A   Clear
4:13 AM 28.4 °F - 26.6 °F 93% 29.90 in 10.0 mi Calm Calm - N/A   Clear
4:33 AM 28.4 °F - 26.6 °F 93% 29.89 in 10.0 mi Calm Calm - N/A   Clear
4:53 AM 28.4 °F - 28.4 °F 100% 29.89 in 10.0 mi Calm Calm - N/A   Clear
5:13 AM 30.2 °F - 28.4 °F 93% 29.89 in 10.0 mi Calm Calm - N/A   Clear
5:33 AM 30.2 °F - 28.4 °F 93% 29.88 in 10.0 mi Calm Calm - N/A   Clear
5:53 AM 32.0 °F - 30.2 °F 93% 29.88 in 10.0 mi Calm Calm - N/A   Clear
6:13 AM 35.6 °F 31.7 °F 35.6 °F 100% 29.87 in 10.0 mi South 4.6 mph - N/A   Clear
6:33 AM 39.2 °F 34.2 °F 39.2 °F 100% 29.86 in 10.0 mi SSE 6.9 mph - N/A   Clear
6:53 AM 42.8 °F 38.6 °F 41.0 °F 93% 29.86 in 10.0 mi SSE 6.9 mph - N/A   Clear
7:13 AM 44.6 °F 41.4 °F 42.8 °F 93% 29.85 in 10.0 mi SSE 5.8 mph - N/A   Clear
7:33 AM 44.6 °F 41.4 °F 41.0 °F 87% 29.85 in 10.0 mi SSE 5.8 mph - N/A   Clear
7:53 AM 46.4 °F 42.9 °F 41.0 °F 81% 29.85 in 10.0 mi SSE 6.9 mph - N/A   Clear
8:13 AM 46.4 °F 43.5 °F 41.0 °F 81% 29.84 in 10.0 mi SSE 5.8 mph - N/A   Clear
8:33 AM 46.4 °F 44.3 °F 41.0 °F 81% 29.84 in 10.0 mi SE 4.6 mph - N/A   Clear
8:53 AM 48.2 °F - 42.8 °F 82% 29.83 in 10.0 mi SSE 5.8 mph - N/A   Clear
9:13 AM 51.8 °F - 42.8 °F 71% 29.82 in 10.0 mi SSE 8.1 mph - N/A   Clear
9:33 AM 55.4 °F - 42.8 °F 63% 29.81 in 10.0 mi SSE 5.8 mph 19.6 mph N/A   Clear
9:53 AM 57.2 °F - 44.6 °F 63% 29.80 in 10.0 mi SE 5.8 mph - N/A   Clear
10:13 AM 57.2 °F - 42.8 °F 59% 29.78 in 10.0 mi SSE 6.9 mph - N/A   Clear
10:33 AM 60.8 °F - 44.6 °F 55% 29.77 in 10.0 mi SSE 8.1 mph - N/A   Clear
10:53 AM 62.6 °F - 44.6 °F 52% 29.76 in 10.0 mi SE 6.9 mph - N/A   Clear
11:13 AM 64.4 °F - 44.6 °F 49% 29.75 in 10.0 mi SSE 6.9 mph - N/A   Clear
11:33 AM 64.4 °F - 44.6 °F 49% 29.74 in 10.0 mi SSE 6.9 mph 20.7 mph N/A   Clear
11:53 AM 64.4 °F - 44.6 °F 49% 29.73 in 10.0 mi SE 9.2 mph - N/A   Clear
12:13 PM 66.2 °F - 42.8 °F 43% 29.72 in 10.0 mi SSE 12.7 mph 17.3 mph N/A   Clear
12:33 PM 66.2 °F - 42.8 °F 43% 29.71 in 10.0 mi SSE 10.4 mph 18.4 mph N/A   Clear
12:53 PM 68.0 °F - 44.6 °F 43% 29.72 in 10.0 mi South 6.9 mph - N/A   Clear
1:13 PM 69.8 °F - 44.6 °F 40% 29.71 in 10.0 mi South 6.9 mph 19.6 mph N/A   Clear
1:33 PM 71.6 °F - 42.8 °F 35% 29.70 in 10.0 mi South 11.5 mph 25.3 mph N/A   Clear
1:53 PM 73.4 °F - 42.8 °F 33% 29.69 in 10.0 mi South 13.8 mph 24.2 mph N/A   Clear
2:13 PM 73.4 °F - 42.8 °F 33% 29.69 in 10.0 mi South 15.0 mph 23.0 mph N/A   Clear
2:33 PM 73.4 °F - 42.8 °F 33% 29.68 in 10.0 mi South 11.5 mph 21.9 mph N/A   Clear
2:53 PM 75.2 °F - 41.0 °F 29% 29.68 in 10.0 mi SSE 11.5 mph 21.9 mph N/A   Clear
3:13 PM 73.4 °F - 42.8 °F 33% 29.66 in 10.0 mi South 11.5 mph 23.0 mph N/A   Clear
3:33 PM 73.4 °F - 42.8 °F 33% 29.66 in 10.0 mi SSE 12.7 mph 18.4 mph N/A   Clear
3:53 PM 75.2 °F - 42.8 °F 31% 29.67 in 10.0 mi South 15.0 mph 24.2 mph N/A   Clear
4:13 PM 75.2 °F - 41.0 °F 29% 29.67 in 10.0 mi South 13.8 mph 23.0 mph N/A   Clear
4:33 PM 73.4 °F - 41.0 °F 31% 29.68 in 10.0 mi South 10.4 mph 20.7 mph N/A   Clear
4:53 PM 71.6 °F - 42.8 °F 35% 29.69 in 10.0 mi South 6.9 mph 19.6 mph N/A   Clear
5:13 PM 71.6 °F - 42.8 °F 35% 29.69 in 10.0 mi South 12.7 mph 21.9 mph N/A   Clear
5:33 PM 73.4 °F - 42.8 °F 33% 29.71 in 10.0 mi South 8.1 mph 18.4 mph N/A   Clear
5:52 PM 71.6 °F - 42.8 °F 35% 29.71 in 10.0 mi South 6.9 mph 17.3 mph N/A   Clear
6:13 PM 68.0 °F - 44.6 °F 43% 29.72 in 10.0 mi South 6.9 mph - N/A   Clear
6:33 PM 66.2 °F - 44.6 °F 46% 29.72 in 10.0 mi South 4.6 mph - N/A   Clear
6:53 PM 66.2 °F - 44.6 °F 46% 29.73 in 10.0 mi South 5.8 mph - N/A   Clear
7:13 PM 64.4 °F - 44.6 °F 49% 29.74 in 10.0 mi Calm Calm - N/A   Clear
7:33 PM 62.6 °F - 46.4 °F 55% 29.75 in 10.0 mi Calm Calm - N/A   Clear
7:53 PM 62.6 °F - 46.4 °F 55% 29.75 in 10.0 mi SSE 3.5 mph - N/A   Clear
8:13 PM 62.6 °F - 46.4 °F 55% 29.76 in 10.0 mi SSE 3.5 mph - N/A   Clear
8:32 PM 62.6 °F - 46.4 °F 55% 29.75 in 10.0 mi South 3.5 mph - N/A   Clear
8:53 PM 62.6 °F - 46.4 °F 55% 29.76 in 10.0 mi SSE 5.8 mph - N/A   Clear
9:13 PM 62.6 °F - 46.4 °F 55% 29.76 in 10.0 mi South 5.8 mph - N/A   Clear
9:33 PM 62.6 °F - 46.4 °F 55% 29.77 in 10.0 mi South 5.8 mph - N/A   Clear
9:53 PM 62.6 °F - 46.4 °F 55% 29.77 in 10.0 mi South 4.6 mph - N/A   Clear
10:12 PM 62.6 °F - 46.4 °F 55% 29.78 in 10.0 mi South 4.6 mph - N/A   Clear
10:33 PM 60.8 °F - 46.4 °F 59% 29.78 in 10.0 mi SSE 4.6 mph - N/A   Clear
10:53 PM 60.8 °F - 46.4 °F 59% 29.78 in 10.0 mi South 5.8 mph - N/A   Clear
11:13 PM 60.8 °F - 44.6 °F 55% 29.79 in 10.0 mi South 3.5 mph - N/A   Clear
11:33 PM 60.8 °F - 44.6 °F 55% 29.79 in 10.0 mi South 4.6 mph - N/A   Clear
11:53 PM 59.0 °F - 44.6 °F 59% 29.80 in 10.0 mi South 3.5 mph - N/A   Clear